OneWeb SL0652

operational
NORAD ID: 55814 Int'l Des: 2023-029 Owner: ONEWEBN Country: UK Constellation: oneweb
LEOCIRCULARPOLARONEWEB_TYPE

关于 OneWeb SL0652

正在加载描述...

实时位置

正在加载3D地球...

即将过境

高度历史

Altitude vs Time

uPlot chart will show altitude changes over time

两行轨道根数

1 55814U 23029U 25304.81611683 -.00000117 00000-0 -34943-3 0 9994
2 55814 87.9008 335.2215 0001747 90.6041 269.5289 13.14503234129365
Epoch: Oct 31, 2025 • Age: 16 hours

当前状态

高度 1219.2 km
速度 7.24 km/s
星下点 -33.55°S, 53.77°W
发射日期 Mar 9, 2023
运行时间 2.6 years
类型 internet

技术详情

分类 Payload
质量 148.00 kg
干质量 140.00 kg
总质量 148.00 kg
长度 1.30 m
直径 1.00 m
跨度 5.00 m
形状 Trapezoid+2 pan
制造商 ONEWUS
平台类型 ARROW
阶段状态 In Orbit
所有者/国家 ONEWEBN/UK

大型星座

Loading constellations...